#timestamp,LO_Frequency,Hit,StdDev 
1458709215.4,286046993.9,N
1458709235.3,286046996.4,N
1458709255.1,286046995.1,N
1458709275.8,286046993.7,N
1458709295.7,286046992.5,N
1458709315.5,286046992.4,N
1458709335.3,286046995.8,N
1458709355.2,286046993.5,N
1458709375.9,286046995.8,N
1458709395.7,286046996.7,N
1458709415.6,286046998.7,N
1458709435.4,286047000.3,N
1458709455.2,286047000.1,N
1458709475.0,286046998.7,N
1458709476.0,286046998.7,N
1458709495.8,286047000.8,N
1458709515.6,286047000.4,N
1458709535.4,286047001.6,N
1458709555.3,286047000.7,N
1458709575.1,286046998.5,N
1458709595.8,286047000.0,N
1458709615.7,286047002.3,N
1458709635.5,286047003.1,N
1458709655.3,286047004.5,N
1458709675.2,286047006.3,N
1458709695.9,286047004.8,N
1458709715.7,286046999.7,N
1458709735.6,286047001.8,N
1458709755.4,286047002.5,N
1458709775.2,286047002.4,N
1458709795.1,286047002.9,N
1458709796.0,286047002.9,N
1458709815.8,286047003.0,N
1458709835.6,286047006.9,N
1458709855.5,286047009.1,N
1458709875.3,286047008.4,N
1458709895.1,286047006.9,N
1458709915.8,286047007.5,N
1458709935.7,286047009.3,N
1458709955.5,286047013.2,Y
1458709975.4,286047010.1,P
1458709995.2,286047012.2,P
1458710015.0,286047012.3,N
1458710015.9,286047012.3,Y
1458710035.8,286047002.5,P
1458710055.6,286047004.2,N
1458710075.4,286047005.4,N
1458710095.2,286047005.1,N
1458710115.1,286047004.2,N
1458710116.0,286047004.2,N
1458710135.8,286047005.7,N
1458710155.7,286047007.4,Y
1458710175.5,286046999.8,P
1458710195.3,286047004.1,N
1458710215.1,286047002.6,N
1458710235.9,286047003.7,N
1458710255.7,286047001.8,N
1458710275.5,286047003.5,N
1458710295.4,286047002.5,N
1458710315.2,286047000.8,N
1458710335.0,286046998.6,N
1458710335.9,286046998.6,N
1458710355.8,286046995.3,N
1458710375.6,286046998.9,N
1458710395.4,286047001.1,N
1458710415.3,286046998.2,N
1458710435.1,286046998.6,N
1458710436.0,286046998.6,N
1458710455.8,286047001.2,N
1458710475.7,286046998.6,N
1458710495.5,286047002.0,N
1458710515.3,286047005.8,N
1458710535.1,286047002.9,N
1458710555.9,286047005.0,N
1458710575.7,286047007.2,N
1458710595.5,286047004.8,N
1458710615.4,286047005.9,N
1458710635.2,286047006.5,N
1458710655.0,286047006.7,N
1458710655.9,286047006.7,N
1458710675.8,286047011.9,Y
1458710695.6,286047010.1,P
1458710715.4,286047008.9,N
1458710735.3,286047009.8,N
1458710755.1,286047011.5,Y
1458710775.8,286047002.1,P
1458710795.7,286047002.6,N
1458710815.5,286047003.2,N
1458710835.3,286047006.3,N
1458710855.2,286047006.4,N
1458710875.9,286047006.5,N
1458710895.7,286047006.1,N
1458710915.6,286047007.8,Y
1458710935.4,286047004.4,P
1458710955.2,286047004.1,P
1458710975.1,286047001.6,P
1458710976.0,286047001.6,N
1458710995.8,286047002.5,N
1458711015.6,286046998.9,N
1458711035.5,286046998.5,N
1458711055.3,286046999.8,N
1458711075.1,286047002.3,N
1458711095.8,286047002.3,N
1458711115.7,286047005.7,N
1458711135.5,286047005.6,N
1458711155.3,286047005.8,N
1458711175.2,286047005.3,N
1458711195.9,286047001.4,N
1458711215.7,286047004.0,N
1458711235.6,286047001.2,N
1458711255.4,286046997.9,N
1458711275.2,286046996.6,N
1458711295.1,286046998.4,N
1458711296.0,286046998.4,N
1458711315.8,286046998.4,N
1458711335.6,286046998.5,N
1458711355.5,286046998.5,N
1458711375.3,286046996.5,N
1458711395.1,286046998.3,N
1458711415.8,286046997.9,N
1458711435.7,286046997.9,N
1458711455.5,286046996.7,N
1458711475.3,286046998.5,N
1458711495.2,286047001.0,N
1458711515.9,286047001.6,N
1458711535.7,286047002.5,N
1458711555.6,286047002.1,N
1458711575.4,286047001.8,N
1458711595.2,286047004.9,N
1458711615.1,286047005.6,N
1458711616.0,286047005.6,N
1458711635.8,286047003.8,N
1458711655.6,286047003.0,N
1458711675.5,286047004.7,N
1458711695.3,286047003.5,N
1458711715.1,286047005.5,N
1458711735.9,286047002.9,N
1458711755.7,286047002.9,N
1458711775.5,286046999.9,N
1458711795.3,286047000.3,N
1458711815.2,286047000.9,N
1458711835.0,286046996.9,N
1458711835.9,286046996.9,N
1458711855.7,286046998.4,N
1458711875.6,286046999.8,N
1458711895.4,286047001.4,N
1458711915.2,286047005.3,N
1458711935.1,286047001.5,N
1458711936.0,286047001.5,N
1458711955.8,286046999.3,N
1458711975.6,286046995.5,N
1458711995.5,286046995.7,N
1458712015.3,286046995.1,N
1458712035.1,286046995.7,N
1458712055.9,286046994.4,N
1458712075.7,286046994.0,N
1458712095.5,286046991.9,N
1458712115.4,286046992.6,N
1458712135.2,286046988.8,N
1458712155.0,286046991.1,N
1458712155.9,286046991.1,N
1458712175.8,286046996.4,N
1458712195.6,286046996.7,N
1458712215.4,286046995.6,N
1458712235.2,286046994.6,N
1458712255.1,286046997.5,N
1458712256.0,286046997.5,N
1458712275.8,286046996.0,N
1458712295.6,286046998.7,N
1458712315.5,286047000.4,N
1458712335.3,286047000.8,N
1458712355.1,286047000.6,N
1458712375.9,286047000.1,N
1458712395.7,286047000.9,N
1458712415.5,286047003.5,N
1458712435.4,286047003.6,N
1458712455.2,286047003.7,N
1458712475.0,286047003.2,N
1458712475.9,286047003.2,N
1458712495.8,286047006.3,N
1458712515.6,286047010.7,N
1458712535.4,286047013.4,N
1458712555.3,286047015.2,N
1458712575.1,286047012.7,N
1458712576.0,286047012.7,N
1458712595.8,286047012.7,N
1458712615.7,286047009.5,N
1458712635.5,286047009.4,N
1458712655.3,286047012.8,N
1458712675.1,286047013.2,N
1458712695.9,286047021.2,Y
1458712715.7,286047016.1,P
1458712735.5,286047019.9,P
1458712755.4,286047019.3,N
1458712775.2,286047023.6,Y
1458712795.0,286047009.1,P
1458712796.0,286047009.1,P
